Regional Weather Roundup
Issued by NWS

Home | Current Version | Previous Version | Graphics & Text | Print | Product List | Glossary On
Versions: 1 2 3 4 5 6 7 8 9 10 11 12 13 14 15 16 17 18 19 20 21 22 23 24 25 26 27
000
ASUS45 KBOU 230707
RWRCO

WEATHER ROUNDUP FOR COLORADO
NATIONAL WEATHER SERVICE DENVER/BOULDER CO
100 AM MDT TUE MAY 23 2017

NOTE: "FAIR" INDICATES FEW OR NO CLOUDS BELOW 12000 FEET WITH NO
SIGNIFICANT WEATHER AND/OR OBSTRUCTIONS TO VISIBILITY.

COZ001>005-013-030-031-230800-
...NORTHWEST COLORADO...

CITY           SKY/WX    TMP DP  RH WIND       PRES   REMARKS
CRAIG          FAIR      33  30  88 NE3       30.34S
HAYDEN         FAIR      36  30  80 CALM      30.34S
MEEKER         MOCLDY    37  35  92 NE6       30.34R
RABBIT EARS PA FLURRIES  27  25  93 NE6       30.37S WCI  20
STEAMBOAT SPGS CLOUDY    37  34  89 CALM      30.34S
WALDEN           N/A     32  30  93 CALM      30.36S
$$

COZ006>008-011-230800-
...WEST CENTRAL VALLEYS...

CITY           SKY/WX    TMP DP  RH WIND       PRES   REMARKS
GRAND JUNCTION MOCLDY    55  35  47 NE15      30.26R
MONTROSE       LGT RAIN  50  45  83 W3        30.28R
EAGLE          FAIR      39  35  86 S5        30.35R
RIFLE          FAIR      49  34  56 N5        30.27F
DELTA          CLOUDY    57  42  56 W9        30.21F
NUCLA          MOCLDY    55  34  44 NE12      30.26R
$$

COZ017>023-064>068-230800-
...SOUTHWEST COLORADO...

CITY           SKY/WX    TMP DP  RH WIND       PRES   REMARKS
DURANGO        FAIR      47  26  44 W6        30.15S
CORTEZ         FAIR      43  35  73 E7        30.16S
PAGOSA SPRINGS FAIR      38  24  56 N3        30.21S
TELLURIDE      LGT RAIN  39  38  94 W5        30.35S
WOLF CREEK PAS CLOUDY    32  23  69 NW7       30.42S WCI  26
$$

COZ009-010-012-014-032>034-037-058>063-230800-
...CENTRAL COLORADO...

CITY           SKY/WX    TMP DP  RH WIND       PRES   REMARKS
ASPEN          CLOUDY    38  34  85 S5        30.30S
BUENA VISTA    LGT RAIN  37  33  87 NW12G24   30.30R
COPPER MTN     SNOW      27  21  80 MISG      30.36F VSB 1/4
BERTHOUD PASS  CLOUDY    18   7  62 NW9       30.36S WCI   6
COTTONWOOD PAS LGT SNOW  34  32  93 CALM      30.33R VSB 1
GUNNISON       FAIR      41  36  82 W10       30.26S
KREMMLING      FAIR      37  34  87 SW3       30.34F
LEADVILLE      MOCLDY    28  25  88 N10       30.32F WCI  19
MONARCH PASS   FOG       28  28 100 NE16      30.45F VSB<1/4 WCI  17
SALIDA         CLOUDY    41  38  88 N10G18    30.37R
SUNLIGHT       CLOUDY    30  21  69 N8G17     30.41F WCI  23
WILKERSON PASS SNOW      27  23  86 N3        30.37R VSB 1/4
$$

COZ069>075-230800-
...SAN LUIS VALLEY/SANGRE DE CRISTO MOUNTAINS...

CITY           SKY/WX    TMP DP  RH WIND       PRES   REMARKS
ALAMOSA        CLOUDY    47  32  56 NE7       30.20S
DEL NORTE      CLOUDY    47  30  51 NW10      30.26R
LA VETA PASS   FOG       28  27  93 NE10G17   30.42S VSB 1/4 WCI  19
SAGUACHE       MOCLDY    43  34  70 NW20      30.22S
$$

COZ035-036-038>040-230800-
...NORTHERN COLORADO FRONT RANGE...

CITY           SKY/WX    TMP DP  RH WIND       PRES   REMARKS
DENVER INTL AP MOCLDY    45  37  73 N8        30.25S
DMNS CITY PARK   N/A     41  40  96 W2        30.26S
AURORA         MOCLDY    40  36  88 N5        30.25F
FRONT RANGE AP MOCLDY    41  37  87 NW7       30.26S
ERIE MUNI ARPT MOCLDY    42  41  95 CALM      30.25F
BOULDER MUN AP CLOUDY    45  41  87 CALM      30.25F
CENTENNIAL     FAIR      41  36  82 NW5       30.25F
BROOMFIELD     MOCLDY    45  36  70 N5        30.26F
FORT COLLINS   FAIR      44  38  79 N7        30.26S
LONGMONT       CLOUDY    46  42  85 CALM      30.27S
$$

COZ041-046-047-076>085-087-088-230800-
...PIKES PEAK/PALMER DIVIDE AND SOUTHERN FOOTHILLS...

CITY           SKY/WX    TMP DP  RH WIND       PRES   REMARKS
COLO. SPRINGS  MOCLDY    43  34  70 NW10      30.25S
A. F. ACADEMY  FAIR      39  35  83 N10       30.24S
SCHRIEVER AFB  MOCLDY    41  32  70 NW13      30.24R
CHEYENNE MTN   MOCLDY    41  27  57 NW23G30   30.18S
ELLICOTT       FAIR     N/A N/A N/A N9        30.23R
FALCON         FAIR      39  32  75 N18G24    30.24F
FORT CARSON    FAIR      40  35  80 N5        30.23R
LIMON          FAIR      41  38  89 N16       30.20R
MONUMENT HILL  FAIR      32  32 100 NW8       30.27F WCI  25
CANON CITY     NOT AVBL
WALSENBURG     CLOUDY    41  39  93 SW9       30.28F
TRINIDAD       RAIN      40  35  83 N14       30.30R
$$

COZ042>045-048>051-090-091-230800-
...NORTHEAST COLORADO...

CITY           SKY/WX    TMP DP  RH WIND       PRES   REMARKS
GREELEY ARPT   MOCLDY    46  39  76 NW12      30.25F
AKRON          FAIR      38  34  85 NW13      30.18F
BURLINGTON     FAIR      44  40  85 N15       30.15S
WRAY           FAIR      43  37  81 NW13      30.15F
YUMA           FAIR      37  36  93 W8        30.17S
STERLING       FAIR      41  37  87 NW10      30.18S
HOLYOKE        NOT AVBL
FORT MORGAN    FAIR      41  35  79 NW12      30.22S
$$

COZ086-089-092>099-230800-
...SOUTHEAST COLORADO...

CITY           SKY/WX    TMP DP  RH WIND       PRES   REMARKS
PUEBLO         CLOUDY    49  39  68 N5        30.23R
LA JUNTA       MOCLDY    49  41  74 NW6       30.21F
LAMAR          CLOUDY    51  40  65 NW7       30.17R
SPRINGFIELD      N/A     47  39  74 NW20      30.17S
$$




USA.gov is the U.S. government's official web portal to all federal, state and local government web resources and services.